Dewpoint
60 55 50 47 49 44 36 34 21 18 20 18 14 9 4 -2 -3 -6 -6 1 -1 9 23 20 23 18 18 46 53 56 56 55 58 52 57 64 65 65 67 69 68 67 66 68 72 72 73 74 74 74 74 74 74 73 73 73 73 72 72 71 71 70 70 69 69 69 69 68 69 69 70 70 71 71 72 71 71 71 71 71 72 71 71 71 71 71 71 71 70 69 69 69 69 70 70 69 69
47 49 49 47 37 35 34 33 25 18 13 9 8 4 -1 -3 -1 -6 -4 -1 1 31 29 28 27 23 21 48 52 57 58 58 61 63 65 66 66 65 66 68 67 66 65 67 69 70 72 73 74 74 74 74 73 73 73 73 72 72 71 71 70 70 70 70 69 70 69 69 69 69 70 70 70 72 72 72 72 72 71 71 71 72 71 71 71 71 71 71 70 69 70 70 70 69 69 69 69
46 50 41 33 34 33 30 25 22 18 11 7 5 2 0 -5 -6 -3 -1 4 30 31 27 27 28 21 19 30 45 50 55 60 62 63 64 66 65 65 66 67 67 65 66 66 66 69 71 73 74 74 74 74 73 73 73 72 72 71 71 71 70 70 70 70 70 70 70 70 69 69 70 70 71 72 73 73 72 72 72 71 71 71 71 71 71 71 71 71 70 70 70 70 69 69 69 68 67
50 46 43 34 31 29 26 15 13 12 8 4 1 -2 -4 -4 -3 16 18 21 21 20 16 22 16 44 45 45 47 49 52 57 59 61 63 66 66 66 66 68 68 65 65 64 66 67 70 73 74 74 74 73 73 73 72 72 72 71 71 70 70 70 70 70 70 70 70 70 70 70 70 70 71 73 73 72 72 72 72 71 72 72 71 72 72 71 70 70 70 70 69 70 70 70 69 69 67
43 40 38 30 29 28 23 20 11 5 4 2 -0 -2 -3 -7 -6 14 16 15 14 19 13 23 25 50 54 52 50 51 53 56 60 63 65 66 67 67 66 67 66 65 64 63 68 69 71 73 73 73 73 73 73 72 72 72 71 71 71 70 70 70 70 70 70 70 70 70 71 71 71 71 72 73 73 73 72 72 72 72 72 72 71 71 70 70 70 70 70 69 69 70 70 70 69 68 68
32 33 36 26 24 24 20 19 19 11 4 1 -1 -1 -3 -6 12 12 14 12 17 20 16 27 29 50 56 57 57 57 54 58 62 65 66 66 67 69 68 69 65 64 63 65 70 70 70 73 73 73 73 73 72 72 72 71 71 71 70 70 70 70 70 70 70 70 69 70 71 72 72 72 72 73 73 73 72 72 72 72 72 71 71 70 70 70 70 70 70 70 70 70 70 70 68 68 68
28 30 28 26 19 15 17 15 12 10 7 1 -2 -1 -1 -7 8 12 10 9 20 17 23 26 49 51 54 56 57 60 58 62 62 64 66 67 68 70 70 67 66 65 65 66 69 68 70 73 73 73 73 72 72 72 71 71 70 71 70 70 70 70 70 70 70 70 69 71 71 72 73 73 73 73 72 72 72 72 72 72 71 71 70 70 70 70 71 70 71 70 70 71 70 70 68 68 68
31 26 25 23 18 10 7 6 5 6 4 1 -2 -1 -1 -5 11 10 7 8 13 15 22 29 34 47 51 57 57 59 63 65 65 67 67 67 68 70 70 66 65 65 64 67 67 68 73 73 73 72 72 72 72 71 71 70 70 70 70 70 70 70 70 70 70 71 71 70 71 72 72 72 73 72 72 72 72 71 71 71 71 71 71 70 69 69 70 70 70 70 70 70 70 70 69 68 67
23 20 21 22 20 16 8 6 3 -1 -2 -1 -3 1 30 10 11 8 6 5 11 17 22 27 33 50 55 56 58 61 62 65 66 68 68 68 69 71 70 67 65 66 66 66 68 71 71 73 72 72 72 71 71 71 71 71 70 70 70 70 70 70 70 69 69 70 70 71 71 71 72 72 72 72 72 72 71 71 71 71 71 71 71 70 69 70 70 70 70 70 70 70 70 70 69 68 67
17 17 17 21 22 20 13 8 5 3 -2 -6 -10 1 4 5 9 7 3 2 11 16 25 25 28 50 53 57 59 61 62 65 66 67 69 70 71 71 71 71 70 69 69 69 70 69 70 73 72 72 72 71 71 71 71 71 71 71 70 70 71 70 70 70 70 70 71 71 72 71 71 71 72 72 72 71 71 71 71 71 71 71 70 69 69 70 70 70 70 70 70 70 70 69 69 68 68
15 15 13 14 17 11 4 1 2 5 4 -2 -9 -1 3 2 5 3 2 1 8 13 21 22 27 49 58 59 59 62 65 66 67 68 70 71 71 71 69 71 71 71 70 70 69 68 70 70 72 72 72 72 72 72 71 71 71 71 71 70 71 70 70 70 70 70 71 70 70 70 71 72 72 72 72 71 71 71 71 70 71 71 70 69 69 69 70 70 70 70 70 70 70 69 68 68 67
16 14 14 8 10 12 8 -1 -4 -1 2 -2 -6 1 3 4 1 -1 5 4 7 10 14 22 34 50 55 58 60 63 67 68 69 69 70 72 70 71 71 69 71 70 70 69 68 68 68 69 69 72 72 72 72 71 71 71 71 71 71 71 72 71 71 70 70 69 69 70 70 70 71 71 71 71 71 71 71 71 70 70 70 70 70 70 69 69 70 70 71 70 70 70 69 69 68 67 67
17 13 15 10 4 2 5 5 -0 1 -5 -5 -3 0 -1 2 -0 2 6 4 8 8 10 20 43 49 57 59 62 65 67 69 69 70 70 70 70 70 71 69 71 70 68 68 67 67 67 67 68 69 70 71 72 71 71 71 72 71 71 72 71 72 71 70 70 69 70 70 71 71 70 70 71 71 71 71 71 71 70 70 70 70 70 70 69 70 70 70 70 70 70 70 69 68 68 67 66
16 14 13 13 9 3 -1 -4 -5 -5 -2 -4 -4 -1 4 3 6 7 6 4 9 9 16 44 51 59 60 60 62 63 67 68 69 69 68 70 71 70 71 70 70 70 68 67 66 67 67 67 67 68 69 70 70 70 72 72 72 72 72 72 71 72 72 72 72 72 71 71 70 70 70 70 70 70 71 71 70 70 71 70 70 70 70 70 70 70 70 70 70 70 70 69 69 69 68 67 66
12 13 12 12 11 10 2 -4 -7 -3 -2 -2 6 9 9 10 6 5 5 3 6 8 23 48 50 52 55 56 60 62 66 68 69 68 69 71 70 71 70 70 71 69 68 66 66 66 65 66 66 68 69 67 68 68 70 70 71 71 71 72 71 71 71 71 71 71 71 70 70 70 70 70 70 70 70 70 70 71 70 70 71 71 69 69 70 70 70 70 71 70 70 69 69 68 68 67 66
10 10 10 11 8 9 7 -1 -3 -0 -7 -7 10 8 8 8 8 9 7 6 18 46 47 49 47 46 50 46 61 63 66 68 69 69 69 70 70 70 70 70 69 69 69 68 70 69 70 66 67 67 67 67 68 68 68 69 71 71 71 71 71 71 71 71 71 71 70 70 70 70 70 70 69 69 70 70 70 70 70 70 70 71 69 69 69 69 70 70 70 70 70 69 69 68 68 67 66
10 13 16 13 10 9 5 2 1 -3 -4 9 12 8 7 7 13 16 11 9 36 47 50 56 59 61 60 61 63 64 67 69 69 69 69 69 69 69 69 69 69 69 68 69 69 70 70 71 67 67 67 67 67 68 68 69 70 71 71 71 71 70 71 71 71 71 70 70 69 70 70 69 69 69 70 68 70 69 70 70 70 70 69 69 69 69 69 70 70 70 69 69 69 68 67 67 66
11 14 14 14 13 6 2 -2 -3 -6 8 11 13 11 10 9 16 17 14 20 47 49 50 55 59 62 63 64 65 67 68 68 68 68 68 67 68 68 68 68 69 66 68 69 69 70 70 70 71 69 69 68 69 69 69 69 71 70 70 71 71 71 71 71 70 70 70 70 70 70 69 69 68 69 69 70 68 68 69 70 70 69 69 69 69 69 69 70 70 70 69 69 69 68 68 65 66
12 12 10 10 12 6 1 -3 -1 8 6 14 14 11 7 17 13 18 25 31 38 47 48 51 55 58 62 63 65 65 67 68 69 68 68 68 67 68 67 67 67 68 68 68 68 69 69 70 70 68 69 68 69 70 69 70 69 69 68 70 69 70 69 70 69 69 68 68 68 68 69 69 69 69 68 70 68 68 68 70 69 69 69 69 69 69 69 70 70 70 70 69 69 69 67 64 62
11 13 8 8 9 5 4 10 12 15 15 14 15 14 17 21 18 29 27 30 32 47 49 51 52 54 57 62 64 65 66 67 69 68 66 66 66 68 67 68 67 67 68 68 68 68 70 70 70 70 69 68 69 69 70 69 69 70 70 68 69 69 70 69 68 68 67 67 67 68 69 71 71 72 68 70 68 68 70 70 70 69 69 69 69 69 70 70 70 70 70 70 69 67 62 64 60
8 10 10 7 5 5 4 6 15 15 16 15 15 20 22 23 24 23 24 27 34 44 49 49 58 60 61 62 63 65 66 67 66 67 66 65 67 67 69 67 66 67 67 68 67 67 68 69 69 69 70 70 70 69 69 71 71 71 70 72 70 69 70 69 69 69 71 71 68 72 71 70 70 70 69 71 68 68 68 68 68 67 68 68 69 68 68 67 70 68 69 69 67 65 63 64 61
8 7 9 10 8 8 5 6 7 14 16 14 15 14 12 26 33 26 23 26 34 36 44 57 58 60 61 62 63 65 65 65 65 64 64 66 67 67 67 68 68 67 67 66 67 68 68 69 69 69 69 69 70 69 70 70 69 69 69 71 71 70 70 70 70 71 70 70 71 71 70 70 70 70 70 71 70 69 67 66 66 67 66 66 68 66 65 66 67 67 67 67 66 65 64 64 64
10 11 7 7 8 10 10 6 10 15 15 14 11 10 16 28 31 29 23 35 48 50 54 56 58 60 60 62 64 64 65 65 65 64 64 67 66 67 67 67 67 66 66 66 67 67 68 68 69 69 69 69 69 70 70 70 70 69 69 69 69 69 70 71 70 70 71 70 71 71 71 71 70 70 68 70 68 70 69 67 65 66 66 66 65 64 62 64 64 66 67 66 65 64 63 62 68
9 8 9 7 9 12 9 5 13 15 14 11 10 13 10 23 27 26 28 42 47 51 52 53 57 58 60 60 63 65 65 65 66 66 68 68 68 68 68 67 67 67 66 66 67 67 68 68 69 68 69 68 68 69 69 68 69 69 69 69 69 70 70 68 67 70 70 71 70 69 70 70 70 69 69 69 71 70 70 68 67 67 67 65 62 61 62 62 62 63 66 66 64 63 62 66 66
6 7 8 9 11 12 8 11 14 14 12 13 13 11 10 10 11 20 27 37 50 48 52 55 57 59 59 61 63 64 64 66 66 67 68 67 68 68 68 68 68 67 67 67 67 67 68 69 69 69 69 69 68 68 68 68 69 69 69 69 69 70 69 69 70 70 69 70 69 69 69 70 69 69 69 70 70 70 70 69 68 67 66 64 62 59 62 63 62 62 65 65 64 64 70 68 66
5 5 7 8 8 8 7 9 12 12 12 13 12 9 8 8 10 15 33 37 47 51 52 55 56 59 59 60 63 63 64 65 66 67 67 68 68 68 68 68 68 68 67 67 67 68 68 69 68 69 69 69 69 69 69 69 69 69 69 69 70 69 70 70 69 69 70 70 69 67 69 69 69 69 69 70 69 70 69 68 68 68 67 64 63 59 61 65 63 62 65 65 62 64 68 68 67
4 4 5 6 6 10 8 5 10 12 12 12 10 7 6 7 14 16 31 41 43 43 52 53 55 57 60 60 62 63 64 65 66 67 67 67 67 66 67 68 67 67 68 68 68 67 69 69 68 69 70 70 69 69 70 69 71 70 70 70 70 68 70 70 69 69 69 69 68 68 69 69 69 69 70 70 70 70 70 68 68 70 69 67 65 63 63 64 65 64 65 64 64 63 67 67 64
7 11 6 5 6 5 7 7 8 11 10 11 9 7 7 8 11 15 31 38 41 42 45 50 53 57 59 61 60 61 64 66 64 66 66 66 65 66 67 67 67 68 68 68 67 69 69 69 68 69 70 70 70 69 70 70 70 70 70 70 70 68 68 70 70 68 68 69 70 70 69 70 69 69 69 70 70 70 70 69 69 70 68 68 68 66 65 65 64 62 64 67 67 71 71 68 66
3 9 9 9 5 2 3 5 6 10 9 11 10 7 6 7 7 12 31 36 39 42 44 51 52 53 55 59 60 60 62 64 64 64 66 65 65 66 67 68 67 67 68 68 68 69 69 69 69 69 71 71 70 70 70 71 70 69 71 71 69 69 68 68 67 69 69 69 69 69 69 68 68 68 69 68 68 69 70 70 69 68 69 70 69 69 67 67 67 66 66 67 68 69 68 67 65
5 7 6 7 7 1 2 5 6 8 9 10 8 7 5 5 6 6 32 33 36 41 47 50 50 50 52 54 55 59 62 63 65 65 65 65 65 66 66 67 68 67 67 68 69 68 70 70 69 70 70 70 70 70 71 70 71 71 71 70 70 69 69 69 69 69 69 69 68 69 69 68 68 68 68 67 69 69 70 69 69 68 70 70 70 69 68 69 68 66 65 66 66 65 67 66 65
4 7 7 8 7 3 1 6 7 8 10 10 8 8 4 5 5 6 26 28 31 44 49 50 47 46 49 51 56 60 63 63 65 65 66 65 66 66 67 67 68 69 67 67 67 68 69 69 69 69 69 69 69 70 68 69 70 69 69 69 70 69 68 68 70 70 70 69 69 69 69 68 68 69 69 69 68 68 68 69 69 68 69 70 69 70 69 69 67 66 65 62 64 65 66 69 66
3 3 5 5 5 3 1 6 7 8 9 10 7 8 5 4 3 5 24 27 29 33 46 46 47 48 50 49 57 60 63 65 66 65 66 65 65 66 67 68 67 67 67 67 67 67 67 69 69 69 70 70 69 69 70 69 70 69 70 70 69 67 68 68 70 68 69 69 68 68 67 68 68 68 68 68 68 68 68 68 69 69 69 69 69 70 69 67 67 67 66 65 63 60 62 65 65
5 4 8 3 2 1 0 3 6 9 7 8 8 3 4 3 3 17 23 25 25 31 44 44 47 48 53 53 58 60 63 64 64 64 65 65 65 66 67 67 68 68 68 67 66 67 67 68 68 69 68 68 68 69 70 69 70 68 68 69 69 69 69 68 69 69 68 68 69 69 68 68 68 68 67 67 67 67 67 67 69 68 69 69 69 69 68 67 67 66 66 66 65 62 58 60 62
6 5 6 4 -0 -2 -0 3 6 7 7 7 8 5 3 5 3 18 22 22 22 27 42 44 45 51 51 50 57 59 60 61 62 64 65 66 65 67 67 67 68 68 67 67 68 67 67 67 68 69 69 69 71 71 70 69 69 69 68 68 68 69 69 70 69 69 69 69 69 68 68 68 68 67 67 67 67 68 67 67 67 68 68 69 69 69 68 68 66 66 66 66 65 66 63 61 65
9 9 8 3 1 -1 -1 1 4 6 6 8 9 7 4 3 4 18 21 20 23 28 43 44 45 49 49 49 52 54 59 61 62 61 64 66 66 67 67 68 68 68 68 68 68 68 68 68 68 69 69 70 70 70 70 70 71 70 69 69 70 69 69 69 69 68 68 69 69 68 67 68 67 67 68 67 68 68 67 67 67 67 67 67 68 68 68 68 67 66 66 66 66 65 65 66 66
5 6 4 1 3 -3 -4 1 5 6 6 6 7 7 5 4 6 18 21 20 21 28 44 43 48 46 48 49 51 54 61 61 63 64 65 65 65 67 67 68 68 68 68 69 68 68 68 68 68 68 69 70 70 69 69 69 68 68 67 70 68 69 68 67 69 68 69 68 68 68 67 68 67 67 67 68 68 68 67 67 67 67 67 67 67 66 67 67 67 66 66 66 66 67 67 66 66
3 5 5 -1 -2 -2 -4 -2 4 6 5 6 6 8 4 4 7 17 19 21 21 40 46 48 49 51 54 56 57 57 59 60 63 65 65 66 66 66 68 68 68 68 68 68 68 67 67 66 67 68 69 70 70 69 67 66 67 68 67 68 69 69 68 68 69 69 67 68 67 67 67 68 67 67 66 67 68 68 68 68 67 67 67 67 67 67 67 66 67 67 66 66 65 65 65 66 66
3 1 2 -1 -3 -2 -4 -2 5 6 14 5 8 4 4 6 11 17 20 22 21 47 48 46 47 50 55 55 55 52 58 61 64 64 66 65 66 67 68 67 67 68 67 68 67 68 68 68 67 68 69 69 69 69 69 71 68 69 67 66 67 66 67 68 68 68 69 69 68 67 67 67 67 68 68 67 68 68 68 67 67 67 67 67 67 67 67 67 67 67 66 66 66 65 64 65 66
6 3 3 2 -2 -1 -3 -1 6 6 5 6 4 4 4 5 11 11 17 18 26 45 47 48 46 50 55 55 56 58 60 60 61 63 64 65 65 66 66 68 68 68 68 68 68 67 68 67 68 68 68 69 69 69 70 67 69 69 68 68 66 66 67 69 68 69 69 69 68 68 68 67 67 67 67 67 67 68 68 67 67 67 67 66 66 66 66 66 66 65 65 65 64 65 65 66 66
11 7 8 4 -0 0 0 1 3 6 9 7 7 4 5 12 13 17 18 15 21 46 45 50 51 48 54 54 56 57 57 58 61 62 61 63 65 65 66 67 67 68 67 66 67 67 67 67 67 67 67 68 69 68 67 68 69 68 69 69 68 67 66 66 67 67 68 68 68 68 68 68 66 67 66 67 67 67 68 68 67 66 66 66 66 66 66 65 65 65 65 65 65 63 63 64 65
13 9 7 5 0 -1 1 -0 2 6 6 9 4 8 5 9 11 16 21 20 19 42 33 39 48 48 52 53 56 57 58 59 60 61 61 61 63 62 65 66 67 67 67 66 67 67 66 66 67 67 68 68 69 68 68 69 68 67 68 68 67 67 67 66 65 65 66 67 67 67 68 67 67 68 67 67 66 66 67 67 66 66 66 66 66 66 66 66 65 65 65 65 64 63 62 63 65
11 13 11 9 3 -1 0 2 -1 7 9 7 3 4 6 13 13 16 19 23 23 24 30 34 49 50 53 53 54 58 59 61 60 60 61 61 62 63 64 64 65 66 66 66 67 67 66 67 68 67 68 69 69 68 68 68 69 66 66 67 66 65 65 66 65 65 67 67 66 68 68 67 67 67 67 67 66 66 66 67 67 67 67 67 66 66 66 66 66 65 64 63 63 64 64 63 63
15 14 13 12 5 -1 -3 1 3 7 7 6 8 6 11 14 14 14 18 22 28 35 41 42 49 49 51 54 54 56 57 60 61 60 61 61 62 63 64 64 65 64 64 66 67 67 67 67 67 67 67 69 68 68 68 67 67 68 67 66 65 64 64 65 67 68 68 68 67 69 69 69 67 67 67 66 66 66 66 66 67 67 66 66 66 66 66 66 66 64 64 65 64 64 64 62 62
11 12 13 13 10 -1 -3 5 6 8 8 7 5 5 7 6 18 20 16 28 33 35 38 41 49 51 53 55 57 57 58 60 60 60 61 62 63 64 64 64 64 63 64 64 66 66 65 66 66 67 68 68 69 69 68 68 68 67 67 66 65 65 65 65 66 66 67 67 68 67 69 69 68 67 67 66 66 66 66 66 66 67 66 67 67 67 66 66 66 65 64 65 65 64 63 62 62
8 12 12 10 8 4 -1 6 6 9 9 8 7 4 6 12 20 21 20 23 29 26 29 34 45 51 53 54 56 57 60 60 61 61 62 62 61 63 62 62 63 63 63 64 64 64 65 66 66 66 67 67 67 67 68 68 68 68 67 66 66 66 65 65 64 64 65 66 66 67 67 67 67 68 67 68 67 66 66 66 66 66 67 67 68 67 66 64 65 65 65 64 64 65 64 63 62
7 11 8 6 4 4 1 0 5 11 13 12 9 6 7 6 21 15 18 21 25 25 32 48 52 53 54 54 55 58 60 60 60 60 60 60 61 61 62 62 63 64 65 63 63 64 64 64 64 63 63 65 67 67 68 67 67 67 67 66 66 65 66 65 65 65 65 66 65 66 67 66 66 68 67 67 66 66 66 66 66 66 66 66 67 67 66 65 65 65 64 64 64 64 65 65 63
10 12 5 2 1 4 8 11 5 10 13 11 8 5 3 6 10 16 20 25 22 27 37 54 55 55 55 57 58 58 59 59 58 58 59 59 59 61 62 61 61 63 65 64 64 64 63 63 63 61 64 65 65 66 66 66 66 66 65 65 65 64 64 64 64 63 63 64 63 64 66 66 67 66 66 67 66 66 66 66 66 66 66 66 66 66 66 66 66 65 65 65 64 64 64 64 64
12 9 5 4 6 8 13 13 8 13 10 8 6 4 3 7 8 10 20 22 23 31 38 52 53 55 55 56 57 57 59 58 57 57 57 58 58 58 59 59 60 61 62 62 63 64 64 64 64 62 64 64 64 64 65 65 65 67 66 65 64 64 64 63 63 62 63 62 63 63 63 65 67 66 66 65 64 66 66 65 66 66 66 65 66 66 66 66 65 65 65 64 64 64 64 63 63
11 8 5 5 6 10 9 8 12 10 15 10 5 5 7 6 14 13 19 22 26 35 45 51 53 54 55 56 57 57 59 57 56 56 56 57 57 58 58 58 59 60 60 60 61 62 63 62 62 62 61 62 62 62 63 63 63 63 64 64 64 65 65 64 63 62 63 62 62 63 63 63 66 66 66 64 65 64 64 64 65 66 66 66 65 65 66 66 65 65 65 65 65 63 63 64 62
4 4 6 6 6 8 12 7 9 8 9 7 6 5 7 10 28 45 25 39 51 51 52 53 53 54 55 55 55 55 56 56 55 56 56 56 56 57 57 57 58 58 59 60 60 61 61 60 61 60 60 61 62 62 62 62 63 64 64 64 64 64 64 63 63 62 62 63 62 62 62 63 64 65 64 64 65 65 65 65 65 64 66 65 65 65 65 65 66 65 64 64 64 64 65 64 63
1 3 3 9 8 9 12 7 10 9 7 6 -0 8 11 28 42 45 46 46 48 49 50 52 54 54 54 54 54 54 54 54 54 54 55 55 56 56 57 57 58 58 58 59 59 59 59 59 60 59 59 60 61 61 62 62 62 63 63 63 63 63 63 62 62 62 62 62 62 62 63 63 64 64 65 64 64 64 64 64 65 64 65 65 65 65 65 65 65 65 65 65 65 65 64 64 63
3 3 2 6 12 12 5 10 7 11 10 12 18 28 42 41 47 47 44 47 48 50 53 53 53 53 53 53 53 53 53 53 54 54 54 54 55 55 56 57 57 57 57 58 58 59 59 59 58 58 58 59 60 60 60 61 62 62 63 63 63 63 63 63 62 62 63 63 63 64 64 64 65 65 64 64 64 64 63 64 64 64 64 65 65 65 64 64 66 65 65 64 63 64 64 63 63
7 2 4 5 10 7 20 20 24 26 19 13 30 40 44 45 44 47 46 48 51 51 52 52 52 52 52 52 52 52 52 52 53 53 53 53 53 54 55 55 56 56 57 57 57 58 57 58 58 57 57 58 59 59 60 60 60 61 62 62 62 62 62 63 62 62 63 63 63 64 64 63 64 64 64 64 64 64 64 63 64 64 64 65 65 65 64 65 64 65 64 64 64 64 64 63 63
4 4 2 3 8 9 20 10 17 13 13 15 32 38 40 40 36 46 48 46 49 49 50 51 51 51 51 51 51 51 52 52 52 52 52 52 53 53 54 55 54 55 55 56 56 58 58 58 57 57 57 57 58 58 59 59 60 60 60 61 61 61 61 61 62 62 63 62 63 63 63 63 63 63 63 63 63 63 64 63 63 64 64 64 64 64 65 65 65 64 64 64 64 64 63 63 63
3 3 3 -2 13 12 16 18 15 13 15 13 18 39 38 38 40 45 45 46 47 48 50 50 50 50 50 50 51 51 51 51 51 51 51 51 52 52 53 53 53 53 54 55 56 57 57 57 57 57 56 57 57 58 58 59 59 59 60 60 60 61 61 61 62 62 63 63 63 64 64 64 64 64 63 63 63 62 62 63 64 64 64 63 65 64 63 64 65 64 64 64 64 63 62 62 63
1 6 -0 1 12 15 12 15 13 12 14 16 19 34 34 37 42 43 44 46 47 48 49 49 49 49 50 50 50 50 51 51 50 50 50 51 51 51 51 52 52 53 54 55 55 56 55 55 56 56 57 56 57 57 57 58 58 59 59 59 60 59 60 61 61 62 62 62 62 62 63 63 64 64 64 63 63 62 63 63 63 63 64 64 64 65 65 65 64 64 64 63 63 63 62 61 63
7 7 7 6 19 11 7 19 6 11 14 12 16 29 34 35 43 43 44 46 47 48 49 49 49 49 49 50 50 50 50 49 49 49 49 50 50 51 51 52 52 53 54 55 55 55 55 55 55 55 55 56 56 57 57 57 58 58 58 59 59 60 61 60 61 62 62 62 62 63 63 64 64 64 63 63 63 63 63 63 62 63 64 63 63 64 64 64 64 63 63 62 63 62 62 63 63
7 5 8 5 7 6 6 10 6 9 12 16 12 15 39 43 43 44 44 48 47 48 49 49 49 49 50 51 50 49 49 49 49 49 50 50 49 50 50 52 53 53 52 53 53 54 54 53 54 55 55 55 55 55 55 56 57 58 58 58 59 59 60 61 62 62 62 62 62 63 63 63 63 63 64 64 63 63 63 63 64 63 63 63 63 64 63 64 63 63 63 64 63 62 63 62 62